Weather reports worldwide

Advertisment
Vlissingen, Netherlands (6310): temperature & dewpoint: 09.12.2019 00:00:00 - 15.12.2019 00:00:00 (CET)Vlissingen, Netherlands (6310): temperature 5cm: 09.12.2019 00:00:00 - 15.12.2019 00:00:00 (CET)Vlissingen, Netherlands (6310): wind speed & gusts: 09.12.2019 00:00:00 - 15.12.2019 00:00:00 (CET)Vlissingen, Netherlands (6310): wind direction: 09.12.2019 00:00:00 - 15.12.2019 00:00:00 (CET)Vlissingen, Netherlands (6310): reduced air pressure: 09.12.2019 00:00:00 - 15.12.2019 00:00:00 (CET)Vlissingen, Netherlands (6310): visibility: 09.12.2019 00:00:00 - 15.12.2019 00:00:00 (CET)Vlissingen, Netherlands (6310): precipitation: 09.12.2019 00:00:00 - 15.12.2019 00:00:00 (CET)
Date & Time tt [°C] td [°C] tt 5cm [°C] ff [km/h] ff [kn] fx [km/h] fx [kn] dd ppp [hPa] vv [km] rr [mm]
15.12.2019 00:00:00 6,7 4,0 5,9 34 18 - - S 994,0 14 -
14.12.2019 23:00:00 6,3 3,6 5,5 29 16 40 21 S 995,3 10 0,0
14.12.2019 22:00:00 6,4 3,1 5,6 34 18 40 21 SSW 996,2 10 0,0
14.12.2019 21:00:00 6,2 2,5 4,9 21 11 32 18 SSW 997,0 10 0,0
14.12.2019 20:00:00 6,7 2,6 5,7 34 18 47 25 W 997,3 10 0,0
14.12.2019 19:00:00 7,8 2,4 6,8 44 24 58 31 W 996,6 10 0,0
14.12.2019 18:00:00 8,1 0,3 7,1 52 28 72 39 W 995,9 10 0,0
14.12.2019 17:00:00 8,1 0,4 7,2 57 31 76 41 W 994,3 10 0,0
14.12.2019 16:00:00 8,1 1,7 7,2 74 40 90 49 W 992,4 9 0,0
14.12.2019 15:00:00 8,3 5,1 7,6 52 28 65 35 WSW 991,0 10 0,0
14.12.2019 14:00:00 7,5 5,5 7,1 54 29 65 35 SW 990,1 10 0,6
14.12.2019 13:00:00 7,2 4,2 6,8 34 18 50 27 SW 991,1 10 0,1
14.12.2019 12:00:00 8,1 3,2 7,7 44 24 65 35 W 991,0 10 0,0
14.12.2019 11:00:00 7,8 2,7 7,2 46 25 61 33 W 990,8 10 0,0
14.12.2019 10:00:00 7,6 2,2 6,8 55 30 72 39 W 989,6 10 0,0
14.12.2019 09:00:00 7,5 3,2 6,7 57 31 83 45 W 988,2 10 0,2
14.12.2019 08:00:00 7,8 4,1 7,1 50 27 68 37 W 986,7 14 0,0
14.12.2019 07:00:00 7,5 4,3 6,7 42 23 68 37 W 985,1 10 0,1
14.12.2019 06:00:00 6,6 3,9 5,8 35 19 54 29 W 984,5 10 0,0
14.12.2019 05:00:00 6,1 3,8 5,3 21 11 36 19 WNW 982,4 10 0,6
14.12.2019 04:00:00 5,9 5,0 5,4 11 6 22 12 W 981,6 6 0,9
14.12.2019 03:00:00 5,7 5,2 5,4 11 6 22 12 SSW 980,9 6 1,4
14.12.2019 02:00:00 6,0 4,9 5,7 31 17 43 23 SSW 981,5 8 0,5
14.12.2019 01:00:00 6,3 3,5 5,8 29 16 40 21 SSW 981,9 10 0,0
14.12.2019 00:00:00 6,1 3,2 5,6 32 18 40 21 SSW 983,0 11 0,0
13.12.2019 23:00:00 6,4 3,1 5,6 35 19 43 23 SW 983,6 10 0,0
13.12.2019 22:00:00 6,8 3,2 6,1 34 18 40 21 SW 983,9 10 0,0
13.12.2019 21:00:00 8,0 3,7 7,3 41 22 50 27 W 984,6 10 0,0
13.12.2019 20:00:00 7,9 3,6 7,3 39 21 50 27 W 984,5 10 0,0
13.12.2019 19:00:00 8,3 3,9 7,5 39 21 54 29 W 984,6 10 0,0
13.12.2019 18:00:00 7,6 4,8 6,9 35 19 54 29 W 984,3 10 0,2
13.12.2019 17:00:00 8,3 3,9 7,7 35 19 58 31 WNW 983,5 10 0,0
13.12.2019 16:00:00 8,4 3,9 7,7 41 22 54 29 WNW 982,3 10 0,0
13.12.2019 15:00:00 8,1 4,9 7,7 32 18 47 25 WNW 980,9 11 0,0
13.12.2019 14:00:00 8,1 5,2 7,6 34 18 50 27 WNW 979,5 10 0,0
13.12.2019 13:00:00 7,8 5,7 7,0 34 18 50 27 NW 978,1 10 1,4
13.12.2019 12:00:00 5,9 5,4 5,8 11 6 25 14 NW 976,7 6 2,2
13.12.2019 11:00:00 5,6 5,0 5,5 15 8 25 14 N 975,0 5 0,7
13.12.2019 10:00:00 5,7 5,3 5,8 16 9 22 12 NNW 972,6 5 0,0
13.12.2019 09:00:00 6,1 5,9 5,9 13 7 22 12 WSW 970,9 5 0,1
13.12.2019 08:00:00 6,1 5,3 5,8 21 11 32 18 SW 969,9 10 0,0
13.12.2019 07:00:00 6,2 5,6 5,9 24 13 32 18 SE 969,7 9 1,0
13.12.2019 06:00:00 5,9 5,4 5,7 29 16 43 23 ESE 969,9 8 1,6
13.12.2019 05:00:00 5,8 5,3 5,6 28 15 36 19 SE 971,0 6 2,1
13.12.2019 04:00:00 5,9 5,1 5,6 35 19 40 21 S 972,5 9 0,3
13.12.2019 03:00:00 5,8 4,8 5,5 37 20 54 29 S 973,9 10 0,1
13.12.2019 02:00:00 5,5 4,4 5,2 40 21 50 27 S 975,2 18 0,0
13.12.2019 01:00:00 5,4 4,3 5,1 46 25 58 31 S 976,6 8 0,2
13.12.2019 00:00:00 5,3 4,0 5,0 52 28 68 37 S 978,2 9 0,2
12.12.2019 23:00:00 5,6 3,9 5,2 52 28 76 41 S 979,4 9 0,2
12.12.2019 22:00:00 5,8 4,1 5,3 59 32 76 41 S 980,7 4,0 0,8
12.12.2019 21:00:00 6,0 4,3 5,5 54 29 68 37 S 982,6 5 0,6
12.12.2019 20:00:00 5,7 4,2 5,3 52 28 61 33 S 984,8 9 0,1
12.12.2019 19:00:00 5,5 3,9 5,2 48 26 61 33 S 986,6 10 0,0
12.12.2019 18:00:00 5,5 3,4 5,2 50 27 65 35 S 988,3 10 0,0
12.12.2019 17:00:00 5,8 3,4 5,5 46 25 58 31 S 989,8 10 0,0
12.12.2019 16:00:00 5,7 2,8 5,5 50 27 61 33 S 991,4 10 0,0
12.12.2019 15:00:00 5,6 3,0 5,5 42 23 61 33 S 993,2 10 0,0
12.12.2019 14:00:00 5,5 2,9 5,5 42 23 58 31 S 995,0 10 0,0
12.12.2019 13:00:00 5,5 3,1 5,6 34 18 43 23 S 996,7 10 0,0
12.12.2019 12:00:00 4,7 2,8 5,1 31 17 40 21 S 998,3 10 0,0
12.12.2019 11:00:00 4,2 2,7 4,3 28 15 36 19 S 999,7 10 0,0
12.12.2019 10:00:00 3,7 2,6 3,3 31 17 40 21 SSW 1000,6 10 0,0
12.12.2019 09:00:00 3,1 2,2 2,6 29 16 36 19 SSW 1001,3 10 0,0
12.12.2019 08:00:00 3,5 2,4 2,7 22 12 29 16 SSW 1001,5 14 0,0
12.12.2019 07:00:00 3,7 2,6 2,9 26 14 32 18 SW 1001,8 10 0,0
12.12.2019 06:00:00 4,4 3,3 4,1 26 14 32 18 SW 1001,9 10 0,0
12.12.2019 05:00:00 4,4 3,5 3,7 22 12 25 14 SW 1002,2 17 0,0
12.12.2019 04:00:00 5,1 3,9 4,9 16 9 29 16 WSW 1002,2 10 0,0
12.12.2019 03:00:00 5,3 4,3 4,8 24 13 29 16 WSW 1002,0 10 0,1
12.12.2019 02:00:00 5,3 4,1 4,5 29 16 36 19 SW 1001,8 10 0,0
12.12.2019 01:00:00 5,5 4,4 4,9 28 15 36 19 SW 1002,0 10 0,0
12.12.2019 00:00:00 5,7 4,4 5,3 24 13 29 16 SW 1002,3 10 0,0
11.12.2019 23:00:00 6,3 4,7 5,5 26 14 32 18 SSW 1002,3 10 0,0
11.12.2019 22:00:00 6,2 5,0 5,6 26 14 36 19 SSW 1002,8 10 0,1
11.12.2019 21:00:00 6,2 5,0 5,9 21 11 22 12 SSW 1003,1 10 0,0
11.12.2019 20:00:00 6,6 4,9 6,0 18 10 29 16 SSW 1003,1 10 0,2
11.12.2019 19:00:00 6,8 4,6 6,3 22 12 29 16 SSW 1003,6 10 0,0
11.12.2019 18:00:00 6,9 5,2 6,2 26 14 32 18 SSW 1003,7 10 0,0
11.12.2019 17:00:00 7,0 5,2 6,2 22 12 29 16 SW 1004,1 10 0,0
11.12.2019 16:00:00 7,4 5,5 6,8 21 11 25 14 SSW 1004,3 10 0,0
11.12.2019 15:00:00 7,3 5,4 6,9 18 10 29 16 SW 1004,9 10 0,0
11.12.2019 14:00:00 7,4 5,6 7,2 22 12 25 14 SW 1005,4 12 0,0
11.12.2019 13:00:00 7,3 5,6 7,2 21 11 25 14 SW 1006,1 10 0,0
11.12.2019 12:00:00 7,0 5,6 6,8 21 11 25 14 SW 1006,9 10 0,0
11.12.2019 11:00:00 6,8 6,0 6,6 21 11 25 14 SSW 1007,9 10 0,0
11.12.2019 10:00:00 6,7 5,8 6,2 21 11 25 14 SSW 1008,0 10 0,0
11.12.2019 09:00:00 6,6 5,9 5,7 16 9 22 12 SW 1008,0 10 0,0
11.12.2019 08:00:00 7,0 6,5 6,5 18 10 25 14 SW 1008,2 10 0,0
11.12.2019 07:00:00 7,3 6,8 7,0 18 10 25 14 SW 1008,6 9 0,0
11.12.2019 06:00:00 7,3 6,8 6,9 22 12 25 14 SW 1008,6 10 0,0
11.12.2019 05:00:00 7,5 6,9 7,1 26 14 32 18 SSW 1008,6 10 0,1
11.12.2019 04:00:00 7,5 6,9 7,2 26 14 32 18 SSW 1008,9 10 0,2
11.12.2019 03:00:00 7,6 6,9 7,3 37 20 50 27 SW 1008,8 6 0,7
11.12.2019 02:00:00 7,7 6,0 7,2 46 25 61 33 SSW 1008,5 7 0,3
11.12.2019 01:00:00 8,0 5,0 7,6 50 27 68 37 SSW 1008,7 10 0,0
11.12.2019 00:00:00 8,0 4,8 7,5 54 29 68 37 SSW 1008,9 12 0,0
10.12.2019 23:00:00 7,9 4,6 7,6 55 30 68 37 SSW 1009,1 10 0,0
10.12.2019 22:00:00 7,6 4,4 7,1 57 31 68 37 SSW 1009,8 10 0,0
10.12.2019 21:00:00 7,4 4,2 7,0 57 31 72 39 SSW 1010,6 10 0,0
10.12.2019 20:00:00 7,2 4,0 6,9 54 29 68 37 SSW 1011,6 10 0,0
10.12.2019 19:00:00 7,2 3,6 6,7 54 29 68 37 SSW 1012,5 10 0,0
10.12.2019 18:00:00 7,0 3,4 6,5 48 26 61 33 S 1013,7 10 0,0
10.12.2019 17:00:00 6,8 3,2 6,3 46 25 58 31 S 1015,4 10 0,0
10.12.2019 16:00:00 6,7 3,3 6,3 44 24 58 31 S 1016,5 10 0,0
10.12.2019 15:00:00 6,7 3,1 6,4 42 23 54 29 SSW 1017,8 10 0,0
10.12.2019 14:00:00 6,3 2,7 6,2 43 23 54 29 S 1019,1 15 0,0
10.12.2019 13:00:00 5,8 2,3 5,8 37 20 54 29 SSW 1020,7 10 0,0
10.12.2019 12:00:00 5,5 1,7 5,7 35 19 43 23 SSW 1022,1 10 0,0
10.12.2019 11:00:00 4,7 1,2 4,6 35 19 43 23 SSW 1023,2 10 0,0
10.12.2019 10:00:00 3,8 0,6 3,2 31 17 40 21 SSW 1024,0 10 0,0
10.12.2019 09:00:00 3,9 0,8 3,1 28 15 32 18 SSW 1024,0 10 0,0
10.12.2019 08:00:00 3,9 1,0 2,8 25 14 32 18 SSW 1024,4 20 0,0
10.12.2019 07:00:00 3,4 1,3 2,5 28 15 32 18 SW 1024,6 10 0,0
10.12.2019 06:00:00 4,1 1,8 3,1 26 14 29 16 SW 1024,8 10 0,0
10.12.2019 05:00:00 4,9 2,7 3,7 18 10 22 12 SW 1024,8 10 0,0
10.12.2019 04:00:00 5,1 1,7 1,7 8 4 14 8 WNW 1025,0 10 0,0
10.12.2019 03:00:00 6,1 2,2 4,5 13 7 22 12 WNW 1024,6 10 0,0
10.12.2019 02:00:00 5,7 2,5 4,4 21 11 32 18 NNW 1024,2 10 0,0
10.12.2019 01:00:00 6,3 2,8 5,0 18 10 32 18 NW 1023,3 10 0,0
10.12.2019 00:00:00 6,1 2,7 5,0 22 12 36 19 NW 1022,8 16 0,0
09.12.2019 23:00:00 6,1 2,4 4,5 15 8 29 16 NW 1022,2 10 0,1
09.12.2019 22:00:00 6,2 2,6 5,2 18 10 36 19 NNW 1021,4 10 0,3
09.12.2019 21:00:00 6,3 3,6 5,1 15 8 29 16 NNW 1020,0 10 0,8
09.12.2019 20:00:00 6,5 3,2 6,0 29 16 50 27 NNW 1018,7 8 0,5
09.12.2019 19:00:00 7,2 2,5 6,3 35 19 54 29 NNW 1016,6 10 0,0
09.12.2019 18:00:00 8,3 2,3 7,4 29 16 50 27 NNW 1014,5 10 0,0
09.12.2019 17:00:00 8,3 2,5 7,5 39 21 65 35 N 1012,4 10 0,0
09.12.2019 16:00:00 8,4 3,5 7,4 37 20 65 35 NNW 1009,6 10 0,1
09.12.2019 15:00:00 8,3 3,1 7,3 52 28 97 53 N 1006,8 10 0,2
09.12.2019 14:00:00 9,0 4,0 8,3 50 27 83 45 NNW 1003,9 9 0,1
09.12.2019 13:00:00 8,1 5,0 7,4 46 25 79 43 NW 1001,6 1,9 0,3
09.12.2019 12:00:00 8,2 4,9 7,4 35 19 65 35 NW 1000,8 9 0,5
09.12.2019 11:00:00 8,1 5,7 7,6 34 18 50 27 NW 999,9 10 0,7
09.12.2019 10:00:00 8,4 5,4 7,8 31 17 50 27 WNW 998,0 10 0,5
09.12.2019 09:00:00 8,1 5,5 7,4 31 17 50 27 WNW 996,3 9 0,3
09.12.2019 08:00:00 8,4 5,1 7,8 34 18 58 31 WNW 994,7 10 0,0
09.12.2019 07:00:00 8,4 5,1 7,4 43 23 54 29 WNW 993,0 19 0,7
09.12.2019 06:00:00 7,6 6,4 6,9 37 20 50 27 WSW 991,3 5 1,0
09.12.2019 05:00:00 6,9 5,2 6,4 44 24 58 31 SSW 991,3 10 0,5
09.12.2019 04:00:00 6,8 5,1 6,2 46 25 61 33 SSW 992,5 6 1,5
09.12.2019 03:00:00 7,1 4,3 6,6 46 25 65 35 SSW 993,8 10 0,0
09.12.2019 02:00:00 7,4 4,9 6,6 42 23 58 31 SSW 994,7 9 0,0
09.12.2019 01:00:00 7,4 4,8 6,6 39 21 50 27 SSW 995,6 10 0,0
09.12.2019 00:00:00 7,3 4,8 6,4 44 24 61 33 SW 996,8 6 0,2

tt = temperature
td = dewpoint
tt 5cm = temperature 5cm
ff = wind speed
fx = gusts
dd = wind direction
ppp = reduced air pressure
vv = visibility
rr = precipitation

Next stations